Regional Weather Roundup
Issued by NWS

Current Version | Previous Version | Text Only | Print | Product List | Glossary On
Versions: 1 2 3 4 5 6 7 8 9 10 11 12 13 14 15 16 17 18 19 20 21 22 23 24 25 26 27 28 29 30 31 32 33 34 35 36 37 38 39 40 41 42 43 44 45 46 47 48 49 50
552
ASUS45 KABQ 281501
RWRNM
NEW MEXICO REGIONAL WEATHER ROUNDUP
NATIONAL WEATHER SERVICE ALBUQUERQUE NM
900 AM MDT THU JUL 28 2016

NOTE: "FAIR" MEANS FEW OR NO CLOUDS BELOW 12,000 FEET AGL WITH NO
       SIGNIFICANT WEATHER OR OBSTRUCTIONS TO VISION.

      THIS PRODUCT IS RELEASED AS TWO VERSIONS.  ONE VERSION NEAR
      THE TOP OF THE HOUR CONTAINING PRELIMINARY DATA FROM ALBUQUERQUE
      AND OTHER STATIONS.  A FINAL VERSION WITH ADDITIONAL DATA IS
      ISSUED ABOUT 10 MINUTES AFTER THE HOUR.

NMZ501-503-504-510>518-281600-
NORTHWEST PLATEAU/NORTHCENTRAL MOUNTAINS

CITY           SKY/WX    TMP DP  RH WIND       PRES   REMARKS
FARMINGTON     FAIR      80  45  28 E15       30.22S
LOS ALAMOS     FAIR      71  50  48 SE6       30.41R
SANTA FE       FAIR      75  51  43 S6        30.33S
TAOS           FAIR      70  39  32 NW3       30.41S
ANGEL FIRE     FAIR      60  49  66 CALM      30.49F

$$
NMZ402-403-502-505>509-281600-
WESTCENTRAL MOUNTAINS/SOUTHWEST MOUNTAINS

CITY           SKY/WX    TMP DP  RH WIND       PRES   REMARKS
GALLUP         FAIR      77  49  37 SW14      30.31S
GRANTS         FAIR      76  48  37 SE9       30.34S

$$
NMZ407-409-411-412-281600-
SOUTHERN DESERTS

CITY           SKY/WX    TMP DP  RH WIND       PRES   REMARKS
LORDSBURG      FAIR      79  54  41 W5        30.15S
DEMING         FAIR      85  53  33 NE12      30.15R
LAS CRUCES     FAIR      83  53  34 NE5       30.17R
HOLLOMAN AFB   FAIR      84  54  35 NW6       30.13R
T OR C         FAIR      78  56  46 N6        30.20R

$$
NMZ519>523-281600-
CENTRAL VALLEYS/CENTRAL HIGHLANDS

CITY           SKY/WX    TMP DP  RH WIND       PRES   REMARKS
ALBUQUERQUE    FAIR      77  54  44 NW3       30.27R
DOUBLE EAGLE   MOSUNNY   73  55  53 N7        30.30S
MORIARTY ARPT  FAIR      69  54  58 N5        30.35R
CLINES CORNERS FAIR      73  52  47 NW3       30.39R
BELEN          FAIR      77  51  40 NE3       30.25S
SOCORRO        FAIR      75  56  52 N3        30.23R

$$
NMZ524>526-539-540-281600-
SOUTHCENTRAL MOUNTAINS

CITY           SKY/WX    TMP DP  RH WIND       PRES   REMARKS
RUIDOSO        NOT AVBL

$$
NMZ527>531-281600-
NORTHEAST HIGHLANDS/NORTHEAST PLAINS

CITY           SKY/WX    TMP DP  RH WIND       PRES   REMARKS
LAS VEGAS      FAIR      74  52  46 SW5       30.35S
RATON          FAIR      69  55  60 E6        30.31R
CLAYTON        FAIR      76  59  55 SE9       30.24R

$$
NMZ532>537-281600-
EASTCENTRAL PLAINS

CITY           SKY/WX    TMP DP  RH WIND       PRES   REMARKS
TUCUMCARI      FAIR      74  57  55 VRB5      30.19S
CANNON AFB     NOT AVBL
CLOVIS AIRPORT FAIR      79  55  44 NE10      30.21S

$$
NMZ028-029-538-281600-
SOUTHEAST PLAINS

CITY           SKY/WX    TMP DP  RH WIND       PRES   REMARKS
ROSWELL        FAIR      78  59  51 N8        30.15R
ARTESIA        FAIR      79  61  53 N9        30.15S
CARLSBAD       FAIR      80  61  52 NW7       30.11R
HOBBS          SUNNY     81  63  54 CALM      30.15S


$$




USA.gov is the U.S. government's official web portal to all federal, state and local government web resources and services.